Weather History for Atwater, CA

Change the Weather History Date:

Friday, September 27, 2013

  Actual Average (KMCE) Record (KMCE)
Temperature  
Mean Temperature 62 °F 69 °F  
Max Temperature 80 °F 86 °F 102 °F (2009)
Min Temperature 44 °F 53 °F 48 °F (2013)
Degree Days  
Heating Degree Days 3    
Month to date heating degree days  
Since 1 July heating degree days  
Cooling Degree Days 0    
Month to date cooling degree days  
Year to date cooling degree days  
Growing Degree Days 12 (Base 50)    
Moisture  
Dew Point 38 °F    
Average Humidity 56    
Maximum Humidity 87    
Minimum Humidity 16    
Precipitation  
Precipitation 0.00 in 0.02 in 0.16 in (1986)
Month to date precipitation 0.26  
Year to date precipitation 8.96  
Since 1 July precipitation 0.28  
Snow  
Snow 0.00 in - - ()
Month to date snowfall  
Since 1 July snowfall  
Since 1 September snowfall  
Snow Depth -    
Sea Level Pressure  
Sea Level Pressure 30.02 in    
Wind  
Wind Speed 3 mph (North)    
Max Wind Speed 12 mph    
Max Gust Speed -    
Visibility 10 miles    
Events      
T = Trace of Precipitation, MM = Missing Value Source: NWS Daily Summary

Daily Weather History Graph

Daily Weather History Graph

Search for Another Location

Airport:

Trip Planner

Search our weather history database for the weather conditions in past years. The results will help you decide how hot, cold, wet, or windy it might be!

Date:

Astronomy

Sep. 27, 2013 Rise Set
Actual Time 6:54 AM PDT 6:51 PM PDT
Civil Twilight 6:28 AM PDT 7:16 PM PDT
Nautical Twilight 5:58 AM PDT 7:47 PM PDT
Astronomical Twilight 5:27 AM PDT 8:17 PM PDT
Moon 12:01 AM PDT (9/27) 2:26 PM PDT (9/27)
Length of Visible Light 12h 48m
Length of Day
11h 56m
Last Quarter, 44% of the Moon is Illuminated
Sep 27
Last Quarter
Oct 4
New
Oct 11
First Quarter
Oct 18
Full
Oct 26
Last Quarter

Hourly Weather History & Observations

Time (PDT) Temp. Windchill Dew Point Humidity Pressure Visibility Wind Dir Wind Speed Gust Speed Precip Events Conditions
12:15 AM 53.6 °F - 39.2 °F 58% 29.94 in 10.0 mi Calm Calm - N/A   Clear
12:35 AM 50.0 °F - 41.0 °F 71% 29.95 in 10.0 mi Calm Calm - N/A   Clear
12:55 AM 50.0 °F - 39.2 °F 66% 29.95 in 10.0 mi Calm Calm - N/A   Clear
1:15 AM 48.2 °F - 41.0 °F 76% 29.96 in 10.0 mi Calm Calm - N/A   Clear
1:35 AM 48.2 °F - 39.2 °F 71% 29.96 in 10.0 mi Calm Calm - N/A   Clear
1:55 AM 51.8 °F - 39.2 °F 62% 29.97 in 10.0 mi NNW 3.5 mph - N/A   Clear
2:15 AM 50.0 °F - 37.4 °F 62% 29.97 in 10.0 mi North 4.6 mph - N/A   Clear
2:35 AM 50.0 °F - 37.4 °F 62% 29.98 in 10.0 mi North - - N/A   Clear
2:55 AM 48.2 °F - 37.4 °F 66% 29.98 in 10.0 mi North - - N/A   Clear
3:15 AM 46.4 °F 43.5 °F 39.2 °F 76% 29.98 in 10.0 mi NNE 5.8 mph - N/A   Clear
3:35 AM 48.2 °F - 39.2 °F 71% 29.99 in 10.0 mi North - - N/A   Clear
3:55 AM 48.2 °F - 39.2 °F 71% 29.99 in 10.0 mi North - - N/A   Clear
4:15 AM 48.2 °F - 39.2 °F 71% 30.00 in 10.0 mi North - - N/A   Clear
4:35 AM 48.2 °F - 39.2 °F 71% 30.00 in 10.0 mi North - - N/A   Clear
4:55 AM 46.4 °F 43.5 °F 39.2 °F 76% 30.00 in 10.0 mi North 5.8 mph - N/A   Clear
5:15 AM 46.4 °F 44.3 °F 39.2 °F 76% 30.01 in 10.0 mi North 4.6 mph - N/A   Clear
5:35 AM 46.4 °F 43.5 °F 39.2 °F 76% 30.00 in 10.0 mi NNE 5.8 mph - N/A   Clear
5:55 AM 46.4 °F 45.2 °F 39.2 °F 76% 30.01 in 10.0 mi NE 3.5 mph - N/A   Clear
6:15 AM 44.6 °F - 41.0 °F 87% 30.02 in 10.0 mi Calm Calm - N/A   Clear
6:35 AM 44.6 °F 43.1 °F 39.2 °F 81% 30.04 in 10.0 mi NE 3.5 mph - N/A   Clear
6:45 AM 44.6 °F - 39.2 °F 81% 30.04 in 10.0 mi Calm Calm - N/A   Clear
6:55 AM 44.6 °F 41.4 °F 41.0 °F 87% 30.04 in 10.0 mi NNE 5.8 mph - N/A   Clear
7:45 AM 48.2 °F - 41.0 °F 76% 30.06 in 10.0 mi North 8.1 mph - N/A   Clear
8:45 AM 57.2 °F - 39.2 °F 51% 30.08 in 10.0 mi North 8.1 mph - N/A   Clear
9:45 AM 60.8 °F - 39.2 °F 45% 30.09 in 10.0 mi North 8.1 mph - N/A   Clear
10:45 AM 66.2 °F - 37.4 °F 35% 30.09 in 10.0 mi NW 5.8 mph - N/A   Clear
11:45 AM 71.6 °F - 37.4 °F 29% 30.09 in 10.0 mi Variable 4.6 mph - N/A   Clear
12:45 PM 75.2 °F - 35.6 °F 24% 30.08 in 10.0 mi Variable 4.6 mph - N/A   Clear
1:45 PM 77.0 °F - 33.8 °F 21% 30.06 in 10.0 mi Variable 4.6 mph - N/A   Clear
2:45 PM 80.6 °F - 30.2 °F 16% 30.04 in 10.0 mi Variable 4.6 mph - N/A   Clear
3:55 PM 80.6 °F - 30.2 °F 16% 30.02 in 10.0 mi NW 11.5 mph - N/A   Clear
5:45 PM 78.8 °F - 28.4 °F 16% 30.01 in 10.0 mi NW 11.5 mph - N/A   Clear
6:45 PM 71.6 °F - 32.0 °F 23% 30.01 in 10.0 mi NNW 8.1 mph - N/A   Clear
7:45 PM 66.2 °F - 32.0 °F 28% 30.02 in 10.0 mi NNW 5.8 mph - N/A   Clear
9:15 PM 59.0 °F - 37.4 °F 45% 30.04 in 10.0 mi Calm Calm - N/A   Clear
9:35 PM 60.8 °F - 35.6 °F 39% 30.04 in 10.0 mi Calm Calm - N/A   Clear
9:55 PM 59.0 °F - 35.6 °F 42% 30.05 in 10.0 mi Calm Calm - N/A   Clear
10:15 PM 57.2 °F - 35.6 °F 44% 30.05 in 10.0 mi Calm Calm - N/A   Clear
10:35 PM 57.2 °F - 37.4 °F 48% 30.05 in 10.0 mi Calm Calm - N/A   Clear
10:55 PM 53.6 °F - 41.0 °F 62% 30.06 in 10.0 mi Calm Calm - N/A   Clear
11:15 PM 55.4 °F - 39.2 °F 54% 30.06 in 10.0 mi Calm Calm - N/A   Clear
11:35 PM 57.2 °F - 37.4 °F 48% 30.06 in 10.0 mi Calm Calm - N/A   Clear
11:55 PM 53.6 °F - 39.2 °F 58% 30.06 in 10.0 mi Calm Calm - N/A   Clear